Weather History for Alexandria, LA

Change the Weather History Date:

Sunday, December 9, 2012

  Actual Average Record
Temperature  
Mean Temperature 69 °F 51 °F  
Max Temperature 81 °F 61 °F 83 °F (2007)
Min Temperature 57 °F 41 °F 18 °F (2006)
Degree Days  
Heating Degree Days 0 15  
Month to date heating degree days 13 124  
Since 1 July heating degree days 380 449  
Cooling Degree Days 4    
Growing Degree Days 18 (Base 50)    
Moisture  
Dew Point 64 °F    
Average Humidity 77    
Maximum Humidity 100    
Minimum Humidity 54    
Precipitation  
Precipitation 0.00 in 0.26 in 3.45 in (1923)
Month to date precipitation 0.32 2.30  
Year to date precipitation 48.29 52.10  
Snow  
Snow 0.00 in - 0.00 in ()
Month to date snowfall 0.0  
Since 1 July snowfall 0.0  
Snow Depth 0.00 in    
Sea Level Pressure  
Sea Level Pressure 29.89 in    
Wind  
Wind Speed 8 mph (SSE)    
Max Wind Speed 16 mph    
Max Gust Speed 22 mph    
Visibility 7 miles    
Events Fog    
T = Trace of Precipitation, MM = Missing Value Source: NWS Daily Summary

Daily Weather History Graph

Daily Weather History Graph

Search for Another Location

Airport:

Trip Planner

Search our weather history database for the weather conditions in past years. The results will help you decide how hot, cold, wet, or windy it might be!

Date:

Astronomy

Dec. 09, 2012 Rise Set
Actual Time 6:57 AM CST 5:07 PM CST
Civil Twilight 6:31 AM CST 5:34 PM CST
Nautical Twilight 6:01 AM CST 6:04 PM CST
Astronomical Twilight 5:31 AM CST 6:34 PM CST
Moon 2:42 AM CST (12/9) 2:05 PM CST (12/9)
Length of Visible Light 11h 03m
Length of Day
10h 09m
Waning Crescent, 18% of the Moon is Illuminated
Dec 9
Waning Crescent
Dec 13
New
Dec 19
First Quarter
Dec 28
Full
Jan 4
Last Quarter

Hourly Weather History & Observations

Time (CST) Temp. Heat Index Dew Point Humidity Pressure Visibility Wind Dir Wind Speed Gust Speed Precip Events Conditions
12:53 AM 62.1 °F - 61.0 °F 96% 29.91 in 10.0 mi SSE 4.6 mph - N/A   Clear
1:53 AM 60.1 °F - 60.1 °F 100% 29.91 in 10.0 mi SSE 5.8 mph - N/A   Clear
2:53 AM 59.0 °F - 59.0 °F 100% 29.91 in 8.0 mi SSE 4.6 mph - N/A   Clear
3:53 AM 59.0 °F - 59.0 °F 100% 29.91 in 7.0 mi SE 4.6 mph - N/A   Clear
4:53 AM 57.9 °F - 57.9 °F 100% 29.91 in 5.0 mi SE 4.6 mph - N/A   Clear
5:11 AM 57.2 °F - 57.2 °F 100% 29.90 in 3.0 mi SE 4.6 mph - N/A   Scattered Clouds
5:53 AM 62.1 °F - 61.0 °F 96% 29.92 in 10.0 mi SE 8.1 mph - N/A   Scattered Clouds
6:00 AM 62.6 °F - 60.8 °F 94% 29.91 in 6.0 mi SE 6.9 mph - N/A   Overcast
6:51 AM 62.6 °F - 62.6 °F 100% 29.92 in 1.8 mi SE 6.9 mph - N/A   Overcast
6:52 AM 62.1 °F - 62.1 °F 100% 29.94 in 1.5 mi SE 6.9 mph - N/A   Overcast
7:06 AM 62.6 °F - 62.6 °F 100% 29.93 in 0.8 mi SE 5.8 mph - N/A   Mist
7:27 AM 62.6 °F - 62.6 °F 100% 29.93 in 0.2 mi SE 6.9 mph - N/A Fog Fog
7:53 AM 63.0 °F - 63.0 °F 100% 29.95 in 0.2 mi SE 5.8 mph - N/A Fog Fog
8:53 AM 64.9 °F - 64.9 °F 100% 29.95 in 0.2 mi SE 5.8 mph - N/A Fog Fog
9:19 AM 66.2 °F - 66.2 °F 100% 29.95 in 0.5 mi SE 6.9 mph - N/A Fog Fog
9:42 AM 66.2 °F - 66.2 °F 100% 29.94 in 1.0 mi SE 5.8 mph - N/A   Overcast
9:53 AM 66.9 °F - 66.9 °F 100% 29.96 in 2.0 mi SSE 8.1 mph - N/A   Overcast
10:01 AM 66.2 °F - 66.2 °F 100% 29.94 in 4.0 mi SSE 6.9 mph - N/A   Overcast
10:53 AM 70.0 °F - 68.0 °F 93% 29.94 in 10.0 mi SSE 6.9 mph - N/A   Overcast
11:00 AM 69.8 °F - 68.0 °F 94% 29.92 in 10.0 mi SSE 8.1 mph - N/A   Overcast
11:53 AM 72.0 °F - 69.1 °F 91% 29.91 in 10.0 mi South 5.8 mph - N/A   Overcast
12:53 PM 75.9 °F - 68.0 °F 76% 29.86 in 10.0 mi SSW 9.2 mph 18.4 mph N/A   Overcast
1:00 PM 77.0 °F - 68.0 °F 74% 29.85 in 10.0 mi SSW 9.2 mph - N/A   Mostly Cloudy
1:53 PM 79.0 °F - 66.0 °F 64% 29.84 in 10.0 mi SSW 9.2 mph - N/A   Scattered Clouds
2:53 PM 80.1 °F 81.5 °F 63.0 °F 56% 29.83 in 10.0 mi SSW 13.8 mph - N/A   Scattered Clouds
3:53 PM 78.1 °F - 63.0 °F 60% 29.83 in 10.0 mi SSW 16.1 mph - N/A   Clear
4:53 PM 75.9 °F - 63.0 °F 64% 29.83 in 10.0 mi South 6.9 mph - N/A   Partly Cloudy
5:53 PM 75.0 °F - 64.0 °F 69% 29.82 in 10.0 mi South 9.2 mph - N/A   Clear
6:53 PM 73.9 °F - 64.9 °F 73% 29.83 in 10.0 mi South 6.9 mph - N/A   Partly Cloudy
7:53 PM 73.0 °F - 66.9 °F 81% 29.83 in 10.0 mi South 10.4 mph - N/A   Clear
8:44 PM 73.4 °F - 68.0 °F 83% 29.82 in 10.0 mi South 10.4 mph - N/A   Mostly Cloudy
8:53 PM 73.0 °F - 68.0 °F 84% 29.83 in 10.0 mi South 8.1 mph - N/A   Mostly Cloudy
9:53 PM 72.0 °F - 68.0 °F 87% 29.85 in 10.0 mi SSW 12.7 mph 17.3 mph N/A   Mostly Cloudy
10:14 PM 71.6 °F - 68.0 °F 88% 29.83 in 10.0 mi South 11.5 mph - N/A   Scattered Clouds
10:53 PM 72.0 °F - 68.0 °F 87% 29.85 in 10.0 mi SSW 13.8 mph - N/A   Overcast
11:53 PM 72.0 °F - 68.0 °F 87% 29.83 in 10.0 mi SSW 12.7 mph - N/A   Partly Cloudy